Location: Detroit
(42.3310°N, 83.0460°W)
Time: 09:42:05
(UTC-05:00)

ISS - Pass Details

Date: 04 December 2021
Orbit: 413 x 422 km, 51.6° (Epoch: 24 January)

Event Time Altitude Azimuth Distance (km) Brightness Sun altitude
Rises 18:03:40 0° 307° (NW) 2,384 0.6 -11.5°
Reaches altitude 10° 18:05:54 10° 317° (NW) 1,515 -0.6 -11.9°
Maximum altitude 18:09:03 34° 24° (NNE) 717 -2.9 -12.4°
Enters shadow 18:10:34 23° 73° (ENE) 961 -2.6 -12.7°
